User: anonymous   Login
Location: Franzen
(48.6167°N, 15.3833°E)
Time: 04:03:21
(UTC+00:00)
Language:

Cosmos 1741 Rocket - Orbit

View from above orbital plane
View from above orbital plane
View from above satellite
View from above satellite

Ground track
Ground track

The orbit data is extracted from the following two-line orbital elements,

1 16682U 86030B   21169.16485823  .00000028  00000-0  18768-4 0  9990
2 16682  74.0274  61.2887 0013967  40.7289 120.7167 14.35948603840725
Epoch (UTC): 18 June 2021 03:57:23
Eccentricity: 0.0013967
inclination: 74.0274°
perigee height: 762 km
apogee height: 782 km
right ascension of ascending node: 61.2887°
argument of perigee: 40.7289°
revolutions per day: 14.35948603
mean anomaly at epoch: 120.7167°
orbit number at epoch: 84072

The dashed part of the orbit path shows where the satellite is in the earth's shadow,  

DLR